ONEWEB-0081, 45429

Orbit data source: Space-Track

ONEWEB-0081, 45429 is a payload satellite owned by One Web (UK) in LEO that was launched on Sat, 21 Mar 2020 UTC via a SOYUZ-2-1B launch vehicle from the Tyuratam Missile And Space Complex (TTMTR). Payload-class satellites include a variety of spacecraft equipped with specific instruments for various scientific and technological missions. These include communications satellites like Starlink; space stations such as the ISS; scientific satellites like the Hubble; Earth observation satellites from companies like Planet Labs, Umbra, and HawkEye 360; GPS; miniature CubeSats for education and research; and military/defense satellites.

Loading next visibility...
Identifier
45429, 2020-020F
Orbit
LEO
Country
Flag of UKUK
Related business
Manufacturer
One Web
Mission
Operational Commercial Communications
Bus & Motor
ARROW, Unknown motor
Mass
148 kg wet, ~140 kg dry
Launch date (UTC)
2020-03-21 (6 years ago)
Launch vehicle
SOYUZ-2-1B
Launch site
Tyuratam Missile And Space Complex (TTMTR)
Object type
Payload
Rocket body
Debris
Shape & HBR
Trap Box + 2 Pan, 6.7 m
Radar Cross Section
3.464 m², Large (>1 m²)

Expand to show TLE details & history
Last TLE update: 10 hours ago

TLE from 10 hours ago
0 ONEWEB-0081
1 45429U 20020F   26254.74692729  .00000377  00000-0  10292-2 0  9996
2 45429  87.8966   3.8577 0001946 105.5255 254.6088 13.11417195314085
Epoch: 2026-09-11T17:55Z
TLE epoch observation values (Epoch: 2026-09-11T17:55:34.517Z)
Latitude
-0.00003°
Longitude
104.19803°
Altitude
1,220.964 km
Speed
7.244 km/s
True Right ascension
00h 15m 25s
True Declination
0° 00' 00"
Sunlit
Object was in full shadow at epoch
Visualization orbit readout
Latitude
Unknown
Longitude
Unknown
Altitude
Unknown
Speed
Unknown
Apparent Right ascension
Unknown
Apparent Declination
Unknown
Sunlit
N/A
Visualization observer readout
Local Sidereal Time
20:05:00
Azimuth
Unknown
Elevation
Unknown
Doppler factor
Unknown
Orbital elements
Apogee altitude
1,216.277 km
Perigee altitude
1,213.322 km
Semi-major axis
7,592.937 km
Eccentricity
0.00019
Inclination
87.8966°
RAAN
3.8577°
Arg. of periapsis
105.5255°
True anomaly
254.5873°
Mean anomaly
254.6088°
Eccentric anomaly
254.59805°
Mean motion
3.28041 °/min
Orbital period
109.74 mins
BSTAR
0.0010292
Loading maneuver chart data...
Computing Atmospheric mass density...
Loading historical data...
Loading historical data...
Loading historical data...
Loading historical data...
Loading historical data...
Loading historical data...
Loading historical data...

Documentation

Showing up to 5 results
|